Weather Roundup
Issued by NWS Chicago, IL

Home | Current Version | Previous Version | Text Only | Print | Product List | Glossary On
Versions: 1 2 3 4 5 6 7 8 9 10 11 12 13 14 15 16 17 18 19 20 21 22 23 24 25 26 27 28 29 30 31 32 33 34 35 36 37 38 39 40 41 42 43 44 45 46 47 48 49 50
000
NZUS59 KLOT 290921
HRRLOT

CHICAGO AREA WEATHER ROUNDUP
NATIONAL WEATHER SERVICE CHICAGO/ROMEOVILLE IL
400 AM CDT SUN MAR 29 2015

NOTE: "FAIR" INDICATES FEW OR NO CLOUDS BELOW 12,000 FEET WITH NO
SIGNIFICANT WEATHER AND/OR OBSTRUCTIONS TO VISIBILITY.

* THESE STATIONS ARE NOT UNDER NWS QUALITY CONTROL. THEY ALSO MAY NOT
  REPORT WEATHER SUCH AS PRECIPITATION OR FOG.

ILZ005-006-012>014-019>023-291000-
NORTHEAST ILLINOIS

CITY           SKY/WX    TMP DP  RH WIND       PRES   REMARKS
OHARE          MOCLDY    27  15  61 S10       30.17F WCI  17
MIDWAY         PTCLDY    30  14  51 S9        30.19F WCI  22
AURORA         CLEAR     28  16  60 S8        30.17F WCI  20
LANSING*       CLEAR     26  15  62 S9        30.21F WCI  17
JOLIET*        CLEAR     29  17  61 S6        30.19F WCI  23
WAUKEGAN       PTCLDY    28  13  53 S14       30.15F WCI  17
DUPAGE AIRPORT CLEAR     26  15  63 S9        30.16F WCI  17
WHEELING       CLEAR     27  13  55 S12       30.18F WCI  17
KANKAKEE*      CLEAR     29  17  61 SE10G16   30.21F WCI  20
MORRIS*        CLEAR     26  17  70 S9        30.18F WCI  16
LEWIS AIRPORT* CLEAR     26  16  65 S9        30.19F WCI  17
NORTHERLY IS     N/A     29  14  53 S12         N/A  WCI  19
$$

WIZ051-052-058>065-066-070>072-291000-
SOUTHEAST WISCONSIN

CITY           SKY/WX    TMP DP  RH WIND       PRES   REMARKS
MILWAUKEE      MOCLDY    28  13  53 S10       30.13F WCI  19
KENOSHA*       PTCLDY    29  14  53 S12       30.14F WCI  19
RACINE*        PTCLDY    29  13  51 S9        30.15F WCI  20
BURLINGTON     PTCLDY    27  15  59 S9        30.12F WCI  18
WAUKESHA       MOCLDY    27  14  59 S8        30.11F WCI  18
WEST BEND      MOCLDY    30  12  47 S12G17    30.08F WCI  21
$$

INZ001>003-010>013-019-020-291000-
NORTHWEST INDIANA

CITY           SKY/WX    TMP DP  RH WIND       PRES   REMARKS
GARY*          CLEAR     30  12  48 S8        30.21F WCI  22
MICHIGAN CITY* NOT AVBL
RENSSELAER*    NOT AVBL
VALPARAISO     CLEAR     24  15  68 S8        30.23F WCI  15
$$

LMZ740>746-291000-
SOUTHERN LAKE MICHIGAN

STATION/POSITION TIME  SKY/WX   TEMP WIND        PRES    VSBY
                                AIR  DIR/SP/G
                 (UTC)          (F)  (DEG/KT/KT) (MB)    (MI)
HARRISON CRIB    0900            31  180/ 22/ 25   N/A
BURNHAM HARBOR   0900            30  180/  7/ 11   N/A
CALUMET HARBOR   NOT AVBL
BURNS HARBOR     0800            27  180/ 11/ 14 1024.4F
MICHIGAN CITY    0900            28  150/ 10/ 13   N/A
$$

ABBREVIATIONS USED IN REMARKS
   TC - TEMPERATURE IN CELSIUS
  WCI - WIND CHILL INDEX
   HX - HEAT INDEX
  VSB - VISIBILITY
$$



USA.gov is the U.S. government's official web portal to all federal, state and local government web resources and services.